RH
3 2 3 3 4 4 4 4 5 4 4 4 5 5 6 6 6 7 7 12 11 9 9 8 11 12 8 26 22 24 39 40 34 27 21 14 10 9 33 61 60 67 57 60 71
2 2 2 3 3 4 5 5 4 4 5 6 5 4 5 6 4 8 20 18 17 14 13 11 8 13 11 23 24 26 32 34 26 19 17 13 11 12 15 55 53 61 61 63 68
2 2 2 2 2 2 3 3 4 6 9 11 7 6 6 5 8 20 22 20 19 16 15 18 18 16 15 16 20 18 24 18 17 17 17 16 15 12 14 51 47 48 60 75 80
2 2 2 2 2 2 3 3 5 10 18 19 16 10 7 6 9 22 24 24 21 20 17 21 23 24 14 15 13 19 14 12 13 11 10 12 11 9 9 16 34 32 55 74 90
2 2 2 2 2 3 5 7 9 16 22 22 12 13 10 13 12 30 23 21 23 27 18 19 23 21 14 12 11 15 14 11 10 8 8 8 9 10 8 10 37 35 59 74 82
3 3 2 3 4 5 14 8 10 21 23 26 25 36 17 21 33 35 30 28 21 21 24 24 20 18 16 14 13 11 11 10 8 8 8 8 8 8 7 11 52 56 59 67 73
3 3 3 4 12 13 16 7 14 20 22 26 38 42 38 40 31 29 28 28 31 30 21 21 23 21 18 16 10 10 13 11 10 9 8 7 8 11 7 35 55 57 58 64 66
4 4 5 10 34 23 12 6 14 21 27 38 48 51 43 32 28 26 24 24 24 22 28 22 21 22 24 19 16 18 14 15 10 9 8 7 9 6 6 54 56 56 56 62 66
5 5 6 19 39 33 9 10 21 27 31 36 40 50 36 27 24 21 27 39 26 21 25 25 20 21 23 25 29 23 20 15 12 8 8 8 8 6 6 51 57 58 56 58 64
5 5 8 20 37 29 17 13 18 28 32 34 36 44 30 27 24 34 32 30 37 35 30 27 23 25 28 29 38 27 22 16 14 9 9 9 10 8 6 33 57 59 58 57 59
6 6 6 17 34 40 44 20 22 23 34 41 28 32 26 24 25 33 35 32 38 41 52 41 39 41 29 24 23 22 18 14 11 9 8 9 8 7 8 18 57 60 59 58 58
6 5 4 12 28 41 45 79 89 75 83 29 16 25 20 22 27 33 32 39 43 53 48 53 57 38 27 26 23 24 24 16 12 9 9 9 10 8 6 9 44 61 61 60 58
7 7 5 10 19 33 40 72 91 91 90 43 16 19 17 20 27 40 39 43 46 56 50 63 46 35 37 33 27 24 22 18 13 9 9 8 10 8 7 6 8 46 58 61 58
8 14 16 14 24 32 36 46 88 94 84 27 19 17 18 19 26 34 29 53 46 53 47 48 39 43 43 36 26 27 18 15 14 13 16 10 13 11 8 8 7 24 55 59 61
16 13 21 31 34 34 37 38 75 88 65 22 20 19 20 22 23 32 29 34 56 54 52 54 49 42 35 30 26 24 18 17 15 15 15 13 16 14 10 9 8 8 41 52 59
29 18 18 25 29 31 28 42 64 58 61 25 22 23 24 21 22 32 29 25 44 44 43 46 42 40 40 29 22 18 22 20 17 18 23 15 16 12 13 9 7 7 21 47 55
32 32 24 33 30 28 23 48 57 74 26 30 30 24 28 28 26 35 40 35 44 54 46 56 50 51 43 41 29 20 25 36 34 31 29 14 17 12 11 10 7 8 9 33 44
36 29 26 33 27 24 22 42 67 32 34 26 28 25 41 31 32 36 47 40 33 41 54 83 72 53 42 42 47 24 23 38 37 30 22 13 19 14 10 38 45 41 32 16 39
34 35 24 32 21 23 24 77 53 33 28 32 31 36 39 34 37 39 52 39 37 38 56 74 80 49 43 44 40 34 23 21 26 28 33 21 13 13 51 56 65 91 85 27 36
36 39 33 32 27 22 49 47 36 26 26 29 44 34 45 41 49 47 58 41 41 36 39 45 82 64 48 48 41 47 46 48 36 34 32 24 16 17 50 63 81 98 96 98 69
38 40 38 30 30 31 76 41 32 25 27 34 39 38 41 45 44 52 58 44 38 39 40 53 78 51 61 91 91 64 75 66 60 51 28 32 28 39 56 71 93 98 100 100 100
48 63 42 34 51 62 79 41 26 27 25 30 34 36 42 39 45 50 51 43 36 34 58 57 92 59 55 94 80 94 83 73 82 79 68 50 41 51 59 62 81 85 90 98 100
61 59 38 44 92 88 56 41 32 35 34 36 38 39 40 44 52 44 48 36 36 37 56 58 72 60 45 68 38 69 78 66 71 66 64 68 72 56 54 59 65 73 72 76 86
60 91 50 57 64 68 71 52 48 33 35 36 38 39 46 48 44 54 54 40 36 36 34 42 79 76 80 75 61 59 46 56 86 78 72 52 49 70 70 63 62 64 68 67 67
61 75 69 94 80 69 57 52 54 57 44 41 46 50 55 63 58 58 49 44 38 32 40 49 64 57 58 49 46 42 40 35 53 89 77 52 65 94 66 56 55 54 55 56 57
71 83 80 80 66 63 63 63 62 60 55 59 66 60 55 70 79 94 66 51 50 42 49 49 68 53 63 48 44 46 36 71 68 80 84 56 100 100 55 50 44 46 47 46 46
75 81 95 79 71 75 73 70 68 62 55 59 64 64 61 68 62 59 57 51 49 53 53 58 63 63 62 46 49 60 41 41 72 71 97 91 98 100 86 46 42 41 41 43 41
Wind_Speed
22 21 22 21 21 21 20 20 20 20 20 20 20 20 19 20 20 21 23 17 17 14 16 19 13 11 13 10 18 7 2 8 9 7 17 13 7 20 5 23 11 20 38 48 39
24 24 23 21 21 20 20 21 22 20 19 20 21 20 18 20 20 12 12 24 21 9 14 17 16 9 9 8 7 6 6 11 7 8 14 17 7 20 2 16 7 20 27 45 48
29 28 27 26 25 23 22 23 24 24 22 22 20 18 15 15 11 6 18 25 16 15 15 13 12 10 9 12 10 6 14 7 16 20 28 26 20 20 6 11 27 31 39 47 52
29 28 27 26 25 23 22 22 22 21 24 23 21 18 14 10 5 15 23 25 15 15 7 15 14 5 5 8 20 9 5 9 25 26 26 18 15 16 17 13 31 43 57 55 52
29 29 28 28 26 24 23 22 21 21 18 20 21 18 13 8 10 22 27 22 23 18 10 13 11 13 6 7 16 11 5 26 33 28 32 31 20 19 26 20 24 43 57 55 52
31 31 30 29 25 24 23 25 22 18 11 22 20 16 9 10 23 21 27 26 24 19 17 14 15 18 15 9 11 6 26 29 31 31 32 22 20 10 29 16 29 46 47 46 48
31 32 31 28 24 24 22 26 18 13 9 16 14 12 15 17 28 28 28 26 24 27 24 19 20 26 5 9 24 17 15 17 18 23 17 23 17 10 29 23 34 42 46 43 44
31 31 31 24 23 27 25 23 15 9 13 8 15 9 6 29 30 25 38 35 24 19 25 22 21 25 28 18 13 7 5 11 20 15 14 11 22 11 20 32 32 39 44 43 47
30 31 30 20 22 27 28 19 8 14 8 11 16 9 7 27 40 38 32 35 36 32 26 23 20 15 17 7 5 7 18 21 8 14 5 10 18 16 20 34 33 35 39 43 44
30 31 29 19 21 28 31 16 6 17 8 6 20 5 18 30 36 23 34 37 25 33 22 6 6 2 5 8 17 23 16 9 12 4 8 13 12 11 17 31 34 36 38 42 42
28 30 28 22 21 26 34 22 15 5 17 8 16 3 16 28 28 31 41 39 27 22 2 4 3 12 23 20 26 18 12 16 14 7 7 13 18 18 12 18 27 31 36 40 44
27 29 28 23 15 22 29 23 11 8 9 14 24 9 28 32 22 32 45 23 21 15 15 3 13 22 17 15 18 19 22 22 9 8 12 17 14 11 12 8 30 32 32 39 42
24 28 27 24 11 23 28 20 7 7 3 7 22 14 33 24 12 31 45 30 13 14 16 16 22 18 14 16 17 21 22 23 15 2 6 2 10 11 11 18 17 39 46 40 45
22 28 28 27 12 26 28 23 8 6 3 13 19 12 30 22 11 28 44 17 6 11 11 15 24 20 20 18 18 22 23 19 11 4 8 8 12 7 7 12 17 23 38 41 42
21 25 26 26 24 29 30 20 5 2 4 15 14 23 26 25 25 23 33 24 11 19 8 9 21 16 19 20 21 24 16 10 13 7 8 12 2 8 4 11 20 18 37 43 46
18 25 25 25 26 26 25 9 5 6 3 8 20 18 14 24 21 18 27 34 7 12 13 14 18 6 5 15 19 18 8 6 2 7 11 22 8 14 6 14 22 19 28 41 44
16 18 20 22 28 22 19 2 5 6 9 11 16 16 11 14 15 11 12 23 19 18 25 21 12 11 4 12 9 8 13 7 7 5 8 13 7 13 9 12 18 20 24 40 45
15 16 17 21 20 19 10 7 11 8 9 13 15 13 8 16 8 16 8 16 14 16 14 10 12 19 19 13 9 8 10 5 8 7 13 14 5 8 10 1 4 5 5 34 45
11 6 23 21 20 18 7 7 2 5 10 13 14 7 9 13 11 11 7 16 13 17 11 9 7 25 23 17 5 5 8 5 8 4 2 4 6 5 4 6 8 11 15 13 41
12 6 29 18 18 19 9 8 4 9 10 8 9 6 12 16 10 13 10 14 16 18 11 10 10 13 22 18 17 13 7 6 1 10 14 1 4 6 6 5 8 10 11 12 10
9 5 24 18 13 23 5 3 7 13 13 6 8 6 11 13 13 11 9 5 17 15 15 6 4 16 7 10 17 12 10 7 4 4 10 5 5 8 4 7 12 11 14 19 17
13 5 21 12 16 6 3 5 11 4 9 6 5 6 9 12 7 7 12 10 26 27 14 6 4 13 17 9 14 10 15 13 4 8 4 2 4 15 8 12 14 16 20 21 21
6 6 14 20 4 5 9 6 9 12 5 6 3 8 8 7 7 11 12 18 29 23 10 10 5 10 10 2 10 11 17 15 12 5 3 3 4 14 14 13 18 20 22 25 23
6 4 10 11 9 3 4 7 6 15 8 16 8 17 13 10 10 8 12 7 23 24 27 15 1 2 4 10 12 12 17 13 10 3 8 2 11 14 16 10 13 19 23 30 29
8 4 7 4 9 15 7 10 8 12 15 16 6 13 15 12 12 7 13 15 16 12 11 4 7 10 7 16 13 16 14 13 9 7 4 9 11 14 16 4 13 21 23 26 29
6 7 9 8 12 10 7 7 10 14 12 10 11 13 12 8 10 18 20 15 11 10 8 4 4 16 10 11 12 15 15 8 5 7 8 10 6 14 20 16 18 21 23 24 27
15 13 3 7 7 5 3 10 13 18 10 17 17 13 15 12 24 27 28 24 19 11 14 4 2 3 10 7 11 6 10 8 2 4 5 5 5 8 14 14 16 21 24 24 28
Wind_Direction
18 16 13 9 5 359 353 350 346 344 339 331 325 320 320 316 318 312 316 323 303 268 249 246 235 235 214 226 211 207 154 241 235 210 253 288 312 309 164 136 171 179 163 174 176
18 15 13 10 7 0 354 350 344 345 338 331 325 324 325 322 324 344 39 4 6 294 247 224 230 214 193 227 212 183 208 230 205 225 262 280 273 308 306 171 173 146 171 170 168
14 11 8 5 3 357 351 346 341 343 343 337 329 328 332 332 342 59 356 341 359 343 254 230 245 239 226 230 208 214 233 238 260 252 262 270 273 289 319 194 177 179 160 165 168
11 9 6 3 359 355 349 345 341 344 342 341 343 341 342 346 60 9 357 354 345 344 267 237 242 229 224 218 226 258 255 225 264 263 270 266 281 283 273 237 222 176 168 168 169
12 9 6 1 358 356 351 346 341 340 343 353 346 344 2 12 19 5 1 359 4 348 323 248 243 242 225 228 238 241 235 255 263 264 262 271 261 261 278 291 216 174 166 168 171
9 6 3 359 356 356 355 345 337 337 333 349 357 358 39 53 3 353 358 359 349 352 322 270 244 249 272 248 228 272 235 248 255 258 259 261 264 230 266 270 173 163 167 167 170
8 4 3 1 358 353 357 350 343 332 350 349 7 24 72 26 2 352 353 347 344 339 319 304 283 247 268 274 262 275 253 260 249 251 251 258 272 206 256 191 170 172 167 173 172
7 4 4 6 360 350 358 350 351 19 348 26 17 34 80 12 350 344 343 332 318 315 323 314 299 268 235 253 293 305 267 246 249 241 248 166 260 241 227 169 183 179 173 175 178
6 4 4 8 360 350 359 356 66 19 71 52 21 21 35 344 0 349 340 339 321 307 296 304 295 267 252 223 299 219 246 242 257 235 213 179 252 249 217 177 186 189 182 177 182
5 6 3 6 2 354 2 6 79 44 42 8 20 356 5 1 352 356 351 339 332 330 320 309 310 261 242 195 225 233 233 254 230 212 185 241 249 270 229 180 185 192 188 183 182
4 4 5 2 9 4 4 27 49 24 39 40 1 28 344 357 357 355 351 348 337 329 281 319 281 243 243 237 248 277 258 242 243 211 191 231 244 254 252 170 184 193 190 188 187
1 3 3 3 13 16 12 49 26 336 315 48 14 24 3 354 350 2 347 354 321 291 298 243 238 249 260 269 263 247 253 254 263 209 200 241 253 248 250 222 181 186 200 191 190
1 4 3 6 10 12 12 25 19 343 245 1 10 11 354 355 15 5 357 333 281 285 277 248 248 251 264 272 251 241 235 240 235 198 266 241 269 249 255 242 196 191 194 195 192
0 6 7 8 6 358 358 357 350 345 59 355 8 358 352 9 23 1 360 341 317 309 310 252 256 236 248 245 246 245 234 237 232 168 246 159 256 253 238 235 233 185 191 196 198
3 3 8 6 359 356 342 342 327 80 63 326 356 343 356 22 335 5 4 352 306 311 263 279 282 253 246 234 236 249 231 224 214 212 252 256 290 261 281 248 223 202 193 196 196
6 12 1 2 359 350 343 352 86 45 1 349 347 341 1 0 349 350 8 16 291 315 284 287 283 223 243 271 228 257 241 252 184 220 241 250 183 263 238 241 225 212 188 195 197
1 8 5 2 357 344 343 65 46 75 351 341 333 350 3 350 340 358 3 12 20 349 342 316 318 310 26 256 265 221 207 229 231 235 235 239 186 232 249 242 229 198 179 197 199
4 14 13 16 359 348 360 61 63 351 6 333 332 352 360 356 327 341 1 13 18 356 327 331 330 14 346 351 290 233 200 187 202 212 241 242 223 241 234 360 356 60 235 196 195
350 2 25 23 24 20 86 55 121 353 335 340 338 347 5 350 338 344 2 14 11 0 2 334 296 313 336 329 304 322 198 222 201 222 199 196 226 275 133 61 43 42 49 198 196
359 27 20 21 32 48 63 94 84 33 354 335 352 5 357 348 350 345 351 24 4 0 345 329 303 329 328 358 22 38 9 34 21 213 233 270 219 209 178 113 71 54 61 57 178
23 62 9 22 52 47 74 60 85 30 23 347 336 345 5 347 335 329 345 335 6 355 340 334 319 317 343 20 17 16 23 351 286 299 204 159 258 343 74 91 101 80 64 68 91
33 43 10 49 47 20 22 354 35 23 33 349 338 350 358 343 315 347 344 349 2 0 343 327 315 334 326 83 50 49 20 15 13 344 329 261 66 14 60 104 97 86 71 66 81
16 5 32 39 59 343 330 16 9 13 355 349 314 25 353 337 331 322 346 334 356 349 351 348 346 338 349 309 358 15 349 350 327 237 8 335 25 21 30 45 60 81 72 69 66
17 18 1 32 34 358 321 7 358 359 357 359 4 1 343 332 323 302 330 325 337 331 343 351 37 116 295 281 295 306 325 343 332 326 324 67 342 30 12 39 66 70 74 77 68
42 49 11 331 346 337 3 13 353 356 356 15 345 348 336 331 323 336 320 316 323 317 323 29 302 293 301 306 308 327 328 311 303 296 276 330 344 19 354 59 85 81 70 63 62
54 13 336 304 336 353 15 349 347 351 333 351 336 346 335 322 348 323 318 316 310 329 327 308 282 311 298 289 316 315 307 345 286 254 276 327 43 353 24 62 78 82 79 67 59
27 5 353 308 343 3 332 333 335 345 319 333 332 330 320 340 315 304 290 284 282 283 299 259 259 309 292 304 308 310 6 333 84 356 360 21 357 345 33 42 55 74 74 71 68